Location: Misciano
(43.5000°N, 11.9500°E)
Time: 01:37:31
(UTC+00:00)

Cosmos 2322 Rocket - Pass Details

Date: 13 August 2020
Orbit: 831 x 852 km, 71.0° (Epoch: 25 September)

Event Time Altitude Azimuth Distance (km) Brightness Sun altitude
Rises 20:42:40 0° 336° (NNW) 3,420 6.7 -22.3°
Reaches altitude 10° 20:45:08 10° 337° (NNW) 2,483 5.6 -22.6°
Maximum altitude 20:50:51 79° 64° (ENE) 872 2.1 -23.2°
Enters shadow 20:52:07 56° 138° (SE) 1,011 2.2 -23.4°
